星链-32864 (STARLINK-32864)

导读 | 豆包AI

STARLINK-32864是美国SpaceX星链星座的卫星,于2025年2月1日发射入轨。星链是美国打造的低轨巨型卫星互联网星座,旨在为全球提供高速互联网服务。该卫星延续星链标准设计,部署在近地轨道,具备互联网接入服务能力,助力扩展星链星座的全球覆盖范围。

基本信息
目录编号:
62862
目录名称:
STARLINK-32864
国际标识:
2025-022J
轨道中心:
EARTH
卫星名称:
星链-32864
卫星全名:
星链-32864 (STARLINK-32864)
卫星状态:
在轨 (已飞行407 天)
发射日期:
2025-02-01 UTC
国别 :
美国 (US)
星等 :
--
轨道信息
数据来源 国际轨道数据
星历时间: 2026-03-14T19:22:49+0800
14小时前
查看轨道信息
半长轴: 6853.315km
偏心率: 0.0001247
轨道倾角: 53.160°
近地点辐角 82.289°
升交点赤经 107.307°
平近点角 277.825°
近地点: 474.323km
远地点: 476.033km
周期: 94.105分钟
每日圈数: 15.302125
详细信息
固有亮度:
5
最大亮度:
2.5
卫星平台:
Starlink V1.0
覆盖范围:
全球
运营商:
太空探索技术公司
运营商所在国:
美国
制造商(研发单位):
太空探索技术公司
制造商所在国:
美国
使用方式:
暂无
卫星简介
Starlink 计划是 SpaceX 推出的全球卫星互联网项目,通过发射低轨道卫星,为全球尤其是偏远地区提供高速、低延迟的互联网服务。自 2019 年起,Starlink 已部署数千颗卫星,旨在缩小全球数字鸿沟,推动互联网普及。该项目还为军事、航空等行业提供通信支持,带来广泛经济效益。
2D轨道图
3D轨道图
轨道高度分析图
轨道倾角分析图
轨道综合分析图
查看轨道综合分析图